Weather History for Buffalo, WY

Change the Weather History Date:

Sunday, September 15, 2013

  Actual Average Record
Temperature  
Mean Temperature 61 °F 58 °F  
Max Temperature 66 °F 72 °F 92 °F (2000)
Min Temperature 55 °F 45 °F 36 °F (2004)
Degree Days  
Heating Degree Days 4 8  
Month to date heating degree days 10 82  
Since 1 July heating degree days 11 147  
Cooling Degree Days 0 1  
Month to date cooling degree days 85 36  
Year to date cooling degree days 699 482  
Growing Degree Days 10 (Base 50)    
Moisture  
Dew Point 54 °F    
Average Humidity 78    
Maximum Humidity 93    
Minimum Humidity 63    
Precipitation  
Precipitation 0.00 in 0.04 in 0.18 in (2006)
Month to date precipitation 1.66 0.56  
Year to date precipitation 6.08 10.83  
Sea Level Pressure  
Sea Level Pressure 30.18 in    
Wind  
Wind Speed 12 mph (ESE)    
Max Wind Speed 25 mph    
Max Gust Speed 30 mph    
Visibility 9 miles    
Events      
T = Trace of Precipitation, MM = Missing Value Source: NWS Daily Summary

Daily Weather History Graph

Daily Weather History Graph

Search for Another Location

Airport:

Trip Planner

Search our weather history database for the weather conditions in past years. The results will help you decide how hot, cold, wet, or windy it might be!

Date:

Astronomy

Sep. 15, 2013 Rise Set
Actual Time 6:46 AM MDT 7:16 PM MDT
Civil Twilight 6:17 AM MDT 7:45 PM MDT
Nautical Twilight 5:42 AM MDT 8:20 PM MDT
Astronomical Twilight 5:06 AM MDT 8:55 PM MDT
Moon 4:52 PM MDT (9/15) 2:19 AM MDT (9/15)
Length of Visible Light 13h 28m
Length of Day
12h 30m
Waxing Gibbous, 82% of the Moon is Illuminated
Sep 15
Waxing Gibbous
Sep 19
Full
Sep 26
Last Quarter
Oct 4
New
Oct 11
First Quarter

Hourly Weather History & Observations

Time (MDT) Temp. Dew Point Humidity Pressure Visibility Wind Dir Wind Speed Gust Speed Precip Events Conditions
12:50 AM 59.0 °F 57.2 °F 94% 30.18 in 10.0 mi NNW 4.6 mph - N/A   Overcast
12:53 AM 59.0 °F 57.0 °F 93% 30.05 in 10.0 mi NNW 3.5 mph - N/A   Overcast
1:27 AM 59.0 °F 57.2 °F 94% 30.18 in 10.0 mi North 3.5 mph - N/A   Overcast
1:53 AM 59.0 °F 57.0 °F 93% 30.06 in 9.0 mi Calm Calm - N/A   Overcast
2:03 AM 57.2 °F 57.2 °F 100% 30.18 in 8.0 mi North 3.5 mph - N/A   Overcast
2:09 AM 59.0 °F 57.2 °F 94% 30.19 in 10.0 mi North 4.6 mph - N/A   Overcast
2:53 AM 60.1 °F 57.0 °F 90% 30.07 in 10.0 mi Calm Calm - N/A   Overcast
3:25 AM 59.0 °F 57.2 °F 94% 30.20 in 10.0 mi Calm Calm - N/A   Overcast
3:44 AM 57.2 °F 55.4 °F 94% 30.20 in 10.0 mi ENE 4.6 mph - N/A   Overcast
3:51 AM 57.2 °F 55.4 °F 94% 30.21 in 10.0 mi ENE 4.6 mph - N/A   Mostly Cloudy
3:53 AM 57.9 °F 55.9 °F 93% 30.10 in 10.0 mi NE 4.6 mph - N/A   Overcast
4:01 AM 57.2 °F 55.4 °F 94% 30.21 in 10.0 mi ENE 4.6 mph - N/A   Overcast
4:09 AM 57.2 °F 55.4 °F 94% 30.21 in 10.0 mi Calm Calm - N/A   Overcast
4:22 AM 57.2 °F 55.4 °F 94% 30.22 in 10.0 mi ENE 3.5 mph - N/A   Mostly Cloudy
4:53 AM 57.0 °F 55.0 °F 93% 30.12 in 10.0 mi Calm Calm - N/A   Mostly Cloudy
5:04 AM 57.2 °F 53.6 °F 88% 30.22 in 10.0 mi Calm Calm - N/A   Mostly Cloudy
5:25 AM 57.2 °F 55.4 °F 94% 30.23 in 10.0 mi Calm Calm - N/A   Mostly Cloudy
5:46 AM 57.2 °F 55.4 °F 94% 30.23 in - Calm Calm - N/A   Unknown
5:53 AM 57.9 °F 55.0 °F 90% 30.13 in 10.0 mi Calm Calm - N/A   Unknown
6:18 AM 57.2 °F 55.4 °F 94% 30.24 in 9.0 mi SE 4.6 mph - N/A   Overcast
6:32 AM 57.2 °F 53.6 °F 88% 30.24 in 10.0 mi Calm Calm - N/A   Mostly Cloudy
6:46 AM 57.2 °F 53.6 °F 88% 30.24 in 10.0 mi Calm Calm - N/A   Mostly Cloudy
6:53 AM 57.0 °F 55.0 °F 93% 30.15 in 9.0 mi Calm Calm - N/A   Overcast
7:25 AM 57.2 °F 55.4 °F 94% 30.25 in 2.5 mi East 4.6 mph - N/A   Overcast
7:46 AM 57.2 °F 55.4 °F 94% 30.26 in 4.0 mi East 3.5 mph - N/A   Overcast
7:53 AM 57.0 °F 55.0 °F 93% 30.16 in 4.0 mi East 4.6 mph - N/A   Overcast
8:53 AM 55.9 °F 54.0 °F 93% 30.18 in 3.0 mi East 4.6 mph - N/A   Overcast
9:45 AM 57.2 °F 55.4 °F 94% 30.28 in 6.0 mi SE 6.9 mph - N/A   Overcast
9:53 AM 57.9 °F 55.0 °F 90% 30.18 in 8.0 mi SSE 6.9 mph - N/A   Overcast
10:12 AM 59.0 °F 55.4 °F 88% 30.28 in 10.0 mi South 5.8 mph - N/A   Mostly Cloudy
10:21 AM 60.8 °F 55.4 °F 82% 30.28 in 10.0 mi SE 6.9 mph - N/A   Mostly Cloudy
10:31 AM 60.8 °F 53.6 °F 77% 30.29 in 10.0 mi SE 6.9 mph - N/A   Mostly Cloudy
10:53 AM 60.1 °F 53.1 °F 78% 30.18 in 10.0 mi SE 9.2 mph - N/A   Overcast
11:11 AM 60.8 °F 51.8 °F 72% 30.29 in 10.0 mi SE 11.5 mph - N/A   Overcast
11:53 AM 64.0 °F 53.1 °F 67% 30.17 in 10.0 mi SSE 10.4 mph - N/A   Overcast
12:53 PM 64.0 °F 51.1 °F 63% 30.16 in 10.0 mi SE 11.5 mph - N/A   Mostly Cloudy
1:53 PM 64.0 °F 51.1 °F 63% 30.15 in 10.0 mi SSE 16.1 mph - N/A   Overcast
2:53 PM 64.9 °F 53.1 °F 65% 30.13 in 10.0 mi SSE 17.3 mph 25.3 mph N/A   Mostly Cloudy
3:53 PM 64.0 °F 53.1 °F 67% 30.13 in 10.0 mi South 18.4 mph 24.2 mph N/A   Clear
4:53 PM 62.1 °F 52.0 °F 70% 30.13 in 10.0 mi SSE 19.6 mph 26.5 mph N/A   Partly Cloudy
5:53 PM 63.0 °F 50.0 °F 63% 30.12 in 10.0 mi South 20.7 mph 27.6 mph N/A   Mostly Cloudy
6:53 PM 61.0 °F 48.9 °F 64% 30.11 in 10.0 mi SSE 15.0 mph 25.3 mph N/A   Clear
7:53 PM 59.0 °F 50.0 °F 72% 30.11 in 10.0 mi SSE 16.1 mph 24.2 mph N/A   Clear
8:53 PM 57.9 °F 48.9 °F 72% 30.12 in 10.0 mi SSE 20.7 mph - N/A   Clear
9:53 PM 57.0 °F 48.9 °F 74% 30.10 in 10.0 mi SSE 19.6 mph 26.5 mph N/A   Clear
10:53 PM 55.9 °F 48.9 °F 77% 30.09 in 10.0 mi SSE 21.9 mph - N/A   Clear
11:53 PM 55.9 °F 48.9 °F 77% 30.05 in 10.0 mi SSE 17.3 mph - N/A   Clear